User: anonymous   Login
Location: Unspecified
(0.0000°N, 0.0000°E)
Time: 02:43:05
(UTC+00:00)
Language:

GALILEO 9 (205) - Orbit

View from above orbital plane
View from above orbital plane
View from above satellite
View from above satellite

Ground track
Ground track

The orbit data is extracted from the following two-line orbital elements,

1 40889U 15045A   19054.51861858 -.00000026  00000-0  00000+0 0  9993
2 40889  56.5355 295.2871 0004682  21.4038 338.6744  1.70474561 21487
Epoch (UTC): 23 February 2019 12:26:48
Eccentricity: 0.0004682
inclination: 56.5355°
perigee height: 23208 km
apogee height: 23236 km
right ascension of ascending node: 295.2871°
argument of perigee: 21.4038°
revolutions per day: 1.70474561
mean anomaly at epoch: 338.6744°
orbit number at epoch: 2148

The dashed part of the orbit path shows where the satellite is in the earth's shadow,  

DLR